Theta_e
310 307 306 301 299 299 295 293 291 288 288 290 292 293 296 297 295 294 294 291 290 289
307 305 304 300 297 297 296 290 287 286 287 287 289 291 292 292 289 291 290 290 289 288
303 303 303 299 295 292 292 287 285 285 285 285 286 288 290 289 289 288 288 287 287 286
300 299 297 295 293 290 287 285 284 284 284 284 285 285 288 288 287 286 285 286 285 284
299 295 292 291 289 287 285 284 283 283 283 283 283 284 286 286 286 285 284 284 284 282
297 294 291 290 288 286 285 284 283 282 282 282 282 283 283 285 285 285 284 283 283 281
296 294 291 290 287 286 284 283 282 282 282 281 281 281 281 282 284 284 284 283 283 281
294 293 291 290 289 287 284 283 282 282 281 281 280 280 280 281 281 283 282 282 281 281
292 290 288 287 286 285 284 282 281 280 280 279 280 283 284 282 281 281 281 280 279 280
289 287 287 286 284 284 283 282 281 281 280 280 280 284 285 284 282 281 281 280 279 278
288 287 286 284 283 283 282 281 281 280 280 280 280 285 285 283 282 282 281 281 280 279
287 286 285 284 283 283 281 281 281 281 280 280 280 285 285 283 281 281 281 280 280 280
286 285 284 284 284 284 283 281 280 280 280 280 280 285 286 283 281 281 280 279 279 280
286 284 285 284 284 283 281 279 279 278 279 279 280 284 286 285 281 281 280 280 279 280
Wind_Speed
15 10 10 11 8 8 10 9 10 9 9 10 11 11 12 9 8 8 6 8 6 5
14 14 12 13 9 8 9 7 9 9 9 7 9 12 12 8 9 9 8 8 8 7
14 14 12 12 11 10 9 9 10 10 8 9 9 10 13 11 11 12 8 8 10 8
13 12 10 10 10 10 9 9 11 10 10 10 11 11 13 12 14 13 11 10 10 10
14 12 11 10 11 10 11 10 11 10 9 9 9 10 13 14 14 15 14 13 12 11
15 14 13 13 12 12 12 12 11 12 12 11 10 11 10 13 13 14 13 13 12 12
14 15 13 12 12 13 14 14 14 14 14 13 11 9 9 12 13 13 13 13 12 11
12 13 11 11 12 12 12 12 12 13 11 11 11 10 11 9 12 12 12 11 10 9
10 10 10 10 11 11 11 10 11 13 14 13 9 17 20 14 11 11 11 11 9 8
10 11 11 10 10 11 12 11 12 13 13 14 12 23 23 19 11 11 11 10 9 7
10 10 11 11 11 11 10 12 12 12 12 11 11 23 22 19 11 10 10 10 9 8
9 9 10 11 11 9 9 9 10 9 10 12 9 23 23 17 10 9 9 8 8 9
8 9 9 10 10 8 7 7 6 7 7 8 10 22 24 17 8 9 7 7 7 13
8 9 9 9 8 8 8 7 8 8 7 8 10 17 26 25 10 10 9 8 8 8
Wind_Direction
208 203 203 188 179 193 192 189 180 187 186 181 173 168 178 179 175 174 179 167 170 158
199 204 198 190 182 190 190 173 168 177 178 162 169 166 170 162 157 158 156 156 153 138
200 202 201 190 188 180 176 162 164 168 171 158 167 168 170 158 159 157 154 153 149 136
198 193 187 188 184 181 166 163 170 170 169 167 171 169 166 161 157 157 152 152 146 138
194 182 179 183 179 168 169 168 168 162 167 169 171 175 167 165 163 161 160 156 151 149
197 188 185 186 180 174 170 168 167 167 169 180 189 169 167 161 164 162 161 160 160 156
203 198 188 186 183 180 177 174 174 178 176 176 170 172 169 159 164 165 164 163 164 163
197 197 191 188 188 185 183 185 185 177 177 174 178 168 166 170 154 161 160 166 158 160
191 184 186 182 181 181 186 185 176 181 177 174 181 179 175 165 160 159 159 165 166 158
184 180 181 176 177 185 188 179 190 191 182 184 179 178 176 168 159 161 169 166 165 169
187 183 176 174 183 182 180 186 189 192 193 182 178 178 175 167 161 162 165 168 177 182
185 183 176 180 183 182 177 186 184 192 181 176 167 173 176 171 164 162 171 174 174 188
173 176 183 177 176 170 173 171 150 160 180 168 165 179 180 173 175 163 170 174 196 203
172 168 170 156 152 147 143 135 132 142 148 165 179 183 185 183 182 182 185 186 201 209